• Em Portugal
  • Lista de países
  • Para 7 dias
  • Temperatura da água
  • Mapas de satélite
  • Mapa do tempo
  • Widgets de tempo
  • user-avatar
    Iniciar Sessão

    Previsão horária em Suhochevo

    Hoje, 21 Julho, Sábado

    Tempo Temperatura Precipitação Vento Pressão Humidade
    00:00 +18°C° 0,1 mm 0 m/s 738 mmHg 90%
    01:00 +20°C° 0,1 mm 1 m/s 738 mmHg 90%
    02:00 +20°C° 0,1 mm 1 m/s 738 mmHg 91%
    03:00 +20°C° 0 mm 1 m/s 738 mmHg 91%
    04:00 +20°C° 0 mm 1 m/s 738 mmHg 91%
    05:00 +20°C° 0 mm 1 m/s 739 mmHg 91%
    06:00 +21°C° 0,4 mm 1 m/s 739 mmHg 88%
    07:00 +23°C° 0,4 mm 1 m/s 739 mmHg 85%
    08:00 +24°C° 0,4 mm 2 m/s 739 mmHg 81%
    09:00 +25°C° 1,1 mm 2 m/s 739 mmHg 78%
    10:00 +26°C° 1,1 mm 2 m/s 739 mmHg 74%
    11:00 +26°C° 1,1 mm 2 m/s 739 mmHg 71%
    12:00 +27°C° 1 mm 1 m/s 739 mmHg 69%
    13:00 +27°C° 1 mm 1 m/s 739 mmHg 67%
    14:00 +28°C° 1 mm 1 m/s 739 mmHg 65%
    15:00 +27°C° 0,4 mm 1 m/s 739 mmHg 67%
    16:00 +27°C° 0,4 mm 1 m/s 738 mmHg 69%
    17:00 +27°C° 0,4 mm 1 m/s 738 mmHg 70%
    18:00 +26°C° 0,1 mm 1 m/s 738 mmHg 76%
    19:00 +24°C° 0,1 mm 1 m/s 738 mmHg 81%
    20:00 +22°C° 0,1 mm 1 m/s 738 mmHg 87%
    21:00 +22°C° 0 mm 1 m/s 738 mmHg 88%
    22:00 +21°C° 0 mm 1 m/s 738 mmHg 89%
    23:00 +21°C° 0 mm 1 m/s 738 mmHg 90%

    Amanhã, 22 Julho, Domingo

    Tempo Temperatura Precipitação Vento Pressão Humidade
    00:00 +21°C° 0 mm 1 m/s 738 mmHg 90%
    01:00 +20°C° 0 mm 1 m/s 738 mmHg 90%
    02:00 +18°C° 0 mm 0 m/s 738 mmHg 91%
    03:00 +20°C° 0,1 mm 1 m/s 738 mmHg 91%
    04:00 +21°C° 0,1 mm 1 m/s 738 mmHg 91%
    05:00 +21°C° 0,1 mm 1 m/s 738 mmHg 91%
    06:00 +22°C° 0 mm 1 m/s 739 mmHg 87%
    07:00 +24°C° 0 mm 1 m/s 739 mmHg 83%
    08:00 +25°C° 0 mm 1 m/s 739 mmHg 78%
    09:00 +26°C° 0,5 mm 2 m/s 739 mmHg 75%
    10:00 +27°C° 0,5 mm 2 m/s 739 mmHg 71%
    11:00 +28°C° 0,5 mm 2 m/s 739 mmHg 68%
    12:00 +28°C° 1,5 mm 2 m/s 738 mmHg 69%
    13:00 +28°C° 1,5 mm 3 m/s 738 mmHg 70%
    14:00 +28°C° 1,5 mm 3 m/s 738 mmHg 71%
    15:00 +27°C° 0,8 mm 3 m/s 738 mmHg 75%
    16:00 +27°C° 0,8 mm 3 m/s 738 mmHg 78%
    17:00 +26°C° 0,8 mm 3 m/s 738 mmHg 81%
    18:00 +25°C° 1,2 mm 3 m/s 738 mmHg 84%
    19:00 +24°C° 1,2 mm 3 m/s 738 mmHg 87%
    20:00 +22°C° 1,2 mm 4 m/s 738 mmHg 90%
    21:00 +21°C° 0,9 mm 4 m/s 738 mmHg 92%
    22:00 +21°C° 0,9 mm 4 m/s 738 mmHg 93%
    23:00 +21°C° 0,9 mm 3 m/s 738 mmHg 95%

    Depois de amanhã, 23 Julho, Segunda-feira

    Tempo Temperatura Precipitação Vento Pressão Humidade
    00:00 +20°C° 0,7 mm 3 m/s 738 mmHg 95%
    01:00 +20°C° 0,7 mm 3 m/s 738 mmHg 96%
    02:00 +20°C° 0,7 mm 3 m/s 739 mmHg 97%
    03:00 +20°C° 0,3 mm 3 m/s 738 mmHg 96%
    04:00 +20°C° 0,3 mm 4 m/s 738 mmHg 96%
    05:00 +20°C° 0,3 mm 4 m/s 738 mmHg 96%
    06:00 +20°C° 0,1 mm 4 m/s 739 mmHg 95%
    07:00 +21°C° 0,1 mm 4 m/s 739 mmHg 94%
    08:00 +21°C° 0,1 mm 4 m/s 739 mmHg 93%
    09:00 +21°C° 0,3 mm 4 m/s 739 mmHg 92%
    10:00 +22°C° 0,3 mm 4 m/s 739 mmHg 90%
    11:00 +22°C° 0,3 mm 4 m/s 739 mmHg 88%
    12:00 +23°C° 0,6 mm 4 m/s 739 mmHg 86%
    13:00 +24°C° 0,6 mm 3 m/s 739 mmHg 85%
    14:00 +25°C° 0,6 mm 3 m/s 739 mmHg 83%
    15:00 +25°C° 0,6 mm 3 m/s 739 mmHg 84%
    16:00 +25°C° 0,6 mm 3 m/s 739 mmHg 84%
    17:00 +25°C° 0,6 mm 3 m/s 739 mmHg 85%
    18:00 +24°C° 0,9 mm 3 m/s 739 mmHg 87%
    19:00 +22°C° 0,9 mm 3 m/s 739 mmHg 89%
    20:00 +21°C° 0,9 mm 3 m/s 739 mmHg 91%
    21:00 +21°C° 0,1 mm 3 m/s 739 mmHg 92%
    22:00 +21°C° 0,1 mm 3 m/s 739 mmHg 93%
    23:00 +20°C° 0,1 mm 3 m/s 739 mmHg 94%

    24 Julho, Terça-feira

    Tempo Temperatura Precipitação Vento Pressão Humidade
    00:00 +20°C° 0 mm 3 m/s 739 mmHg 94%
    01:00 +20°C° 0 mm 3 m/s 739 mmHg 94%
    02:00 +19°C° 0 mm 2 m/s 739 mmHg 95%
    03:00 +19°C° 0 mm 2 m/s 739 mmHg 95%
    04:00 +19°C° 0 mm 2 m/s 740 mmHg 94%
    05:00 +19°C° 0 mm 2 m/s 740 mmHg 94%
    06:00 +21°C° 0 mm 3 m/s 740 mmHg 90%
    07:00 +22°C° 0 mm 3 m/s 740 mmHg 86%
    08:00 +25°C° 0 mm 3 m/s 740 mmHg 82%
    09:00 +26°C° 0,1 mm 3 m/s 740 mmHg 76%
    10:00 +27°C° 0,1 mm 3 m/s 740 mmHg 70%
    11:00 +28°C° 0,1 mm 3 m/s 740 mmHg 64%
    12:00 +29°C° 0,2 mm 3 m/s 740 mmHg 64%
    13:00 +29°C° 0,2 mm 3 m/s 740 mmHg 64%
    14:00 +29°C° 0,2 mm 3 m/s 740 mmHg 63%
    15:00 +28°C° 0,6 mm 3 m/s 740 mmHg 69%
    16:00 +28°C° 0,6 mm 3 m/s 740 mmHg 74%
    17:00 +27°C° 0,6 mm 3 m/s 741 mmHg 79%
    18:00 +25°C° 0,5 mm 3 m/s 741 mmHg 82%
    19:00 +24°C° 0,5 mm 3 m/s 741 mmHg 85%
    20:00 +22°C° 0,5 mm 3 m/s 741 mmHg 89%
    21:00 +21°C° 0,4 mm 3 m/s 741 mmHg 90%
    22:00 +21°C° 0,4 mm 3 m/s 741 mmHg 90%
    23:00 +20°C° 0,4 mm 3 m/s 741 mmHg 91%

    25 Julho, Quarta-feira

    Tempo Temperatura Precipitação Vento Pressão Humidade
    00:00 +20°C° 0,2 mm 3 m/s 741 mmHg 92%
    01:00 +19°C° 0,2 mm 3 m/s 741 mmHg 94%
    02:00 +19°C° 0,2 mm 3 m/s 741 mmHg 95%
    03:00 +19°C° 0,2 mm 3 m/s 741 mmHg 95%
    04:00 +19°C° 0,2 mm 3 m/s 742 mmHg 96%
    05:00 +19°C° 0,2 mm 3 m/s 742 mmHg 96%
    06:00 +20°C° 0,3 mm 3 m/s 742 mmHg 94%
    07:00 +21°C° 0,3 mm 3 m/s 742 mmHg 91%
    08:00 +22°C° 0,3 mm 3 m/s 742 mmHg 89%
    09:00 +24°C° 0,7 mm 3 m/s 742 mmHg 84%
    10:00 +25°C° 0,7 mm 3 m/s 742 mmHg 79%
    11:00 +26°C° 0,7 mm 3 m/s 742 mmHg 74%
    12:00 +27°C° 0,7 mm 3 m/s 742 mmHg 72%
    13:00 +28°C° 0,7 mm 4 m/s 742 mmHg 70%
    14:00 +28°C° 0,7 mm 4 m/s 742 mmHg 68%
    15:00 +28°C° 0,5 mm 4 m/s 742 mmHg 71%
    16:00 +27°C° 0,5 mm 3 m/s 742 mmHg 75%
    17:00 +27°C° 0,5 mm 3 m/s 743 mmHg 78%
    18:00 +26°C° 0,3 mm 3 m/s 743 mmHg 81%
    19:00 +24°C° 0,3 mm 3 m/s 743 mmHg 83%
    20:00 +22°C° 0,3 mm 4 m/s 743 mmHg 86%
    21:00 +22°C° 0,2 mm 4 m/s 743 mmHg 88%
    22:00 +21°C° 0,2 mm 3 m/s 744 mmHg 89%
    23:00 +21°C° 0,2 mm 3 m/s 744 mmHg 90%

    26 Julho, Quinta-feira

    Tempo Temperatura Precipitação Vento Pressão Humidade
    00:00 +20°C° 0,1 mm 3 m/s 744 mmHg 91%
    01:00 +20°C° 0,1 mm 3 m/s 744 mmHg 92%
    02:00 +20°C° 0,1 mm 3 m/s 744 mmHg 93%
    03:00 +20°C° 0 mm 3 m/s 744 mmHg 93%
    04:00 +20°C° 0 mm 3 m/s 745 mmHg 93%
    05:00 +20°C° 0 mm 3 m/s 745 mmHg 93%
    06:00 +21°C° 0,2 mm 3 m/s 745 mmHg 90%
    07:00 +23°C° 0,2 mm 4 m/s 745 mmHg 87%
    08:00 +25°C° 0,2 mm 4 m/s 745 mmHg 83%
    09:00 +26°C° 0,7 mm 4 m/s 746 mmHg 79%
    10:00 +28°C° 0,7 mm 4 m/s 746 mmHg 75%
    11:00 +29°C° 0,7 mm 5 m/s 746 mmHg 70%
    12:00 +29°C° 0,4 mm 5 m/s 746 mmHg 70%
    13:00 +29°C° 0,4 mm 4 m/s 746 mmHg 69%
    14:00 +29°C° 0,4 mm 4 m/s 746 mmHg 69%
    15:00 +29°C° 0,3 mm 4 m/s 746 mmHg 72%
    16:00 +28°C° 0,3 mm 4 m/s 746 mmHg 76%
    17:00 +28°C° 0,3 mm 3 m/s 746 mmHg 79%
    18:00 +27°C° 0,2 mm 3 m/s 746 mmHg 82%
    19:00 +25°C° 0,2 mm 3 m/s 746 mmHg 86%
    20:00 +24°C° 0,2 mm 3 m/s 746 mmHg 89%
    21:00 +24°C° 0 mm 3 m/s 746 mmHg 90%
    22:00 +22°C° 0 mm 3 m/s 746 mmHg 91%
    23:00 +22°C° 0 mm 3 m/s 746 mmHg 92%
    Mostrar mais